This is the latest recevied weather packets stored in our database for station/object WD9EKA. If no packets are shown the sender has not sent any weather packets the latest 10 day(s).
| Time | Temp. | Humidity | Pressure | Rain* | Wind** | Luminosity | Snow |
|---|---|---|---|---|---|---|---|
| 1778105193 | 15° C | 49% | 1010.1 hPa | 0 mm | - | - | - |
| 1778104833 | 15° C | 49% | 1010.2 hPa | 0 mm | - | - | - |
| 1778104473 | 15° C | 52% | 1010.1 hPa | 0 mm | - | - | - |
| 1778104113 | 15° C | 49% | 1010.1 hPa | 0 mm | - | - | - |
| 1778103753 | 15.56° C | 49% | 1010.2 hPa | 0 mm | - | - | - |
| 1778103393 | 15° C | 53% | 1010.3 hPa | 0 mm | - | - | - |
| 1778102313 | 13.89° C | 54% | 1010.3 hPa | 0 mm | - | - | - |
| 1778101953 | 13.89° C | 54% | 1010.2 hPa | 0 mm | - | - | - |
| 1778101593 | 13.89° C | 56% | 1010.2 hPa | 0 mm | - | - | - |
| 1778101233 | 13.89° C | 59% | 1010.2 hPa | 0 mm | - | - | - |
| 1778100873 | 13.89° C | 55% | 1010.2 hPa | 0 mm | - | - | - |
| 1778100513 | 15° C | 53% | 1010.1 hPa | 0 mm | - | - | - |
| 1778100153 | 14.44° C | 53% | 1010.3 hPa | 0 mm | - | - | - |
| 1778099794 | 15° C | 54% | 1010.5 hPa | 0 mm | - | - | - |
| 1778099433 | 15.56° C | 53% | 1010.1 hPa | 0 mm | - | - | - |
| 1778099073 | 15° C | 51% | 1010.5 hPa | 0 mm | - | - | - |
| 1778098714 | 14.44° C | 50% | 1010 hPa | 0 mm | - | - | - |
| 1778098354 | 14.44° C | 61% | 1010.2 hPa | 0 mm | - | - | - |
| 1778097994 | 15° C | 51% | 1009.9 hPa | 0 mm | - | - | - |
| 1778097636 | 14.44° C | 52% | 1009.9 hPa | 0 mm | - | - | - |
| 1778097333 | 14.44° C | 55% | 1010.2 hPa | 0 mm | - | - | - |
| 1778096973 | 13.89° C | 51% | 1010.1 hPa | 0 mm | - | - | - |
| 1778096613 | 13.89° C | 55% | 1010.2 hPa | 0 mm | - | - | - |
| 1778096253 | 13.89° C | 59% | 1010.1 hPa | 0 mm | - | - | - |
| 1778095893 | 13.89° C | 60% | 1010.4 hPa | 0 mm | - | - | - |
* Rain latest hour (hover to see other rain measurements)
** Current wind speed in m/s (hover to see current wind gust speed)